Wind_Speed
8 10 11 12 14 15 16 15 12 11 10 11 10 10 9 9 10 11 12 15 16 16 15 17 18 19 20 22 21 22 24 25 26 27 31 34 35 36
4 6 7 7 8 10 10 11 9 8 7 7 7 9 10 11 12 13 13 13 14 15 16 18 20 22 22 21 21 22 24 25 25 27 29 31 33 35
4 3 3 4 6 7 8 9 8 8 9 8 8 9 9 10 12 13 12 11 12 13 16 19 20 21 21 23 22 22 22 23 24 26 29 30 32 34
4 3 1 3 4 4 4 5 6 7 7 8 9 10 11 12 12 12 11 11 12 15 15 17 18 19 21 22 22 21 22 23 24 25 27 29 34 34
5 3 4 2 3 4 3 3 4 5 5 5 7 8 10 10 10 9 8 10 12 14 17 16 19 19 18 25 26 21 21 24 25 24 25 27 29 35
7 5 4 5 6 5 4 5 6 6 4 4 6 7 7 8 6 4 7 8 13 19 18 18 17 19 20 23 24 24 25 27 29 28 26 28 32 33
8 9 6 5 6 6 6 7 6 6 7 6 5 6 5 5 5 5 6 9 15 20 18 21 20 16 12 20 25 25 22 29 26 29 27 28 28 30
13 10 9 10 9 8 7 5 7 8 7 6 7 8 6 1 3 3 5 11 14 14 15 14 17 14 15 19 24 22 21 25 28 29 31 32 27 25
18 16 13 13 11 10 10 8 7 7 8 8 6 7 5 0 7 7 9 13 11 9 8 8 9 9 9 17 24 22 23 22 23 30 30 33 33 31
23 20 19 17 12 12 13 12 11 8 9 8 7 8 6 3 9 12 14 16 13 12 11 10 6 4 10 18 21 25 24 29 28 26 28 29 39 32
26 24 21 19 15 14 13 12 12 9 14 11 9 7 6 5 12 18 18 19 16 16 17 12 6 7 11 16 21 23 26 25 26 32 33 29 31 38
26 26 24 20 16 15 16 14 12 12 15 13 11 9 7 8 11 18 20 21 21 17 20 19 13 14 15 17 20 20 22 24 30 33 34 33 29 32
24 25 23 21 20 19 18 16 15 16 15 9 10 10 10 8 9 14 16 23 27 28 25 22 22 24 26 25 23 22 26 29 30 32 36 34 34 32
26 25 25 24 23 22 22 19 17 18 11 6 6 6 10 12 13 13 15 19 28 30 29 31 32 33 33 34 34 30 28 30 30 32 32 30 28 29
30 30 28 27 26 27 28 19 17 17 14 15 14 10 12 14 15 15 16 17 20 19 21 22 26 27 24 31 35 31 39 33 28 30 34 29 25 29
32 30 29 30 33 34 32 20 18 20 20 21 20 18 17 17 18 15 18 20 23 25 24 26 26 24 25 27 28 25 30 33 27 30 27 24 28 34
31 30 33 36 38 37 33 26 24 23 23 23 23 24 23 22 22 20 22 23 21 21 23 23 26 26 28 27 26 27 29 32 27 30 27 31 35 40
35 35 37 38 39 37 33 31 28 29 28 26 27 26 25 24 24 25 25 25 22 22 23 25 27 26 25 26 26 28 30 27 27 31 33 37 41 43
43 43 40 40 39 36 36 35 34 35 33 34 34 33 31 29 26 24 25 24 22 22 24 28 32 33 30 35 36 38 37 36 35 36 41 46 48 49
50 48 47 44 41 39 37 35 36 38 39 38 38 38 37 38 34 27 26 29 34 38 39 40 40 40 38 38 39 43 44 43 46 49 48 53 56 59
55 54 51 50 51 49 47 45 44 42 43 44 45 43 42 43 41 34 33 38 40 42 41 41 42 39 35 36 43 41 48 49 49 49 52 58 63 65
57 57 57 58 58 57 55 53 52 51 48 48 47 46 45 45 48 46 44 42 40 40 43 38 40 41 39 38 40 39 43 49 50 53 55 60 61 60
64 61 59 58 57 56 55 54 56 56 59 57 55 49 46 49 51 51 49 48 50 47 42 43 41 41 45 46 47 48 51 53 54 58 60 64 63 64
Wind_Direction
61 60 62 63 61 59 55 55 57 59 56 53 50 52 46 40 36 26 20 20 22 21 21 28 35 26 22 24 23 24 24 31 34 34 37 35 36 35
43 49 58 58 54 44 36 31 34 31 23 27 27 28 25 15 10 7 12 26 34 42 35 28 27 24 28 25 22 25 35 36 39 44 43 41 42 42
12 18 27 27 14 15 19 27 32 24 13 6 6 5 3 0 1 7 24 42 44 27 25 27 28 31 29 29 27 29 38 43 46 47 47 43 42 44
346 329 336 349 352 9 22 28 34 27 20 8 8 5 3 357 9 17 24 39 26 32 37 40 35 44 50 37 37 42 36 42 45 46 47 49 50 45
296 316 312 332 342 340 351 13 12 5 7 11 359 355 349 356 8 24 23 34 31 40 47 53 54 73 73 66 66 62 53 60 60 51 47 52 53 53
280 283 287 302 311 317 320 330 337 340 332 330 346 15 24 31 30 30 43 45 63 82 88 84 87 95 83 75 65 65 71 66 66 68 65 65 64 60
279 266 261 286 288 296 299 315 325 328 318 322 338 342 351 45 29 54 71 114 107 115 112 116 104 93 71 71 57 56 61 51 66 62 63 68 63 59
262 256 254 269 274 279 273 298 309 308 308 311 321 329 342 2 166 131 126 143 138 131 117 123 107 88 66 52 43 48 50 48 51 54 49 44 55 62
255 248 245 256 260 266 270 266 274 286 288 287 286 298 315 274 172 170 178 183 175 177 155 144 125 112 41 23 22 18 24 24 35 41 41 44 36 36
250 246 249 255 254 257 258 257 258 259 260 262 257 270 292 240 197 193 196 195 210 217 219 221 247 318 3 3 4 10 10 16 12 9 18 23 22 25
240 241 250 255 252 249 253 257 250 239 248 243 234 238 261 242 213 210 207 210 220 227 227 219 261 298 320 341 347 352 353 357 5 10 9 2 4 7
235 236 238 237 237 247 249 241 236 217 248 241 229 238 241 257 243 223 232 229 229 234 244 236 260 273 302 313 330 336 337 339 348 352 359 4 360 0
235 241 230 225 220 228 236 230 207 221 253 249 234 236 251 256 264 249 243 243 244 258 267 271 256 281 289 295 307 321 321 331 331 341 346 357 355 356
238 237 232 225 218 227 233 228 209 223 244 249 246 213 227 245 251 258 251 254 255 261 263 269 273 270 281 292 301 298 318 323 325 330 347 350 356 0
236 220 220 222 223 230 235 227 215 228 242 253 254 235 233 239 250 254 256 263 270 275 275 270 278 282 293 287 287 295 292 304 312 322 330 331 346 352
234 223 222 222 221 227 237 240 230 234 233 242 255 255 250 252 262 265 271 277 277 283 286 282 281 282 277 284 286 291 289 290 299 304 318 319 328 338
233 229 226 227 229 233 240 246 244 244 245 247 253 256 254 257 261 266 270 279 284 286 290 295 287 279 284 296 295 293 291 292 299 300 301 313 321 326
232 235 238 238 239 243 247 248 252 255 257 259 261 261 259 259 261 265 271 276 293 300 301 300 292 290 285 284 288 289 293 288 288 297 309 308 314 315
234 237 241 242 243 245 247 247 250 255 259 262 265 271 273 273 272 272 272 279 282 278 276 282 281 285 281 278 283 282 288 292 294 297 306 308 310 313
233 235 238 240 244 248 248 245 246 250 253 259 263 267 272 275 274 271 266 261 264 273 280 286 290 291 291 293 293 291 292 285 292 294 298 306 308 310
239 237 236 242 248 251 252 254 255 255 256 258 261 261 266 270 273 272 268 267 268 273 274 279 286 295 301 305 299 295 295 301 301 302 303 303 305 307
234 239 238 240 245 250 254 259 261 260 263 266 261 263 264 266 271 277 275 274 274 272 282 283 288 286 290 299 301 302 296 296 300 304 306 308 314 308
230 233 239 242 244 249 255 259 264 265 265 266 269 271 272 273 274 275 274 275 275 276 280 279 277 286 285 288 292 298 301 298 298 302 303 302 307 306
Height
11019 11018 11017 11016 11015 11014 11013 11012 11011 11010 11009 11008 11007 11005 11003 11001 10999 10997 10995 10993 10990 10987 10984 10981 10978 10973 10968 10965 10959 10955 10952 10948 10943 10940 10936 10931 10925 10920
11020 11019 11019 11018 11017 11016 11015 11014 11014 11013 11011 11010 11008 11008 11005 11002 11000 10998 10996 10994 10992 10989 10986 10983 10980 10976 10972 10966 10961 10958 10955 10952 10947 10943 10938 10933 10929 10923
11020 11019 11019 11018 11018 11016 11015 11015 11015 11014 11012 11011 11010 11009 11007 11004 11002 11000 10998 10996 10993 10990 10988 10985 10982 10978 10974 10969 10965 10961 10958 10954 10950 10946 10942 10937 10932 10927
11020 11020 11018 11017 11017 11016 11015 11015 11015 11014 11013 11011 11009 11008 11007 11005 11003 11000 10997 10996 10993 10991 10989 10987 10985 10981 10978 10973 10970 10966 10963 10959 10954 10950 10946 10941 10937 10931
11019 11018 11018 11016 11015 11015 11015 11014 11014 11013 11012 11011 11009 11008 11007 11004 11002 11000 10997 10997 10994 10992 10992 10990 10989 10987 10983 10979 10975 10971 10966 10962 10957 10953 10950 10946 10941 10936
11017 11016 11016 11016 11015 11015 11014 11014 11013 11012 11011 11010 11009 11007 11007 11005 11003 11001 11000 10997 10996 10996 10993 10992 10990 10988 10986 10982 10979 10974 10970 10966 10962 10957 10953 10949 10944 10939
11014 11014 11014 11014 11013 11014 11013 11013 11012 11011 11010 11009 11008 11007 11006 11005 11003 11002 11001 10999 10998 10997 10996 10995 10994 10992 10990 10985 10982 10978 10974 10971 10965 10960 10955 10951 10947 10943
11010 11011 11011 11010 11010 11010 11010 11010 11009 11009 11008 11007 11006 11005 11004 11004 11003 11001 11001 11000 11000 10998 10997 10996 10994 10993 10991 10988 10984 10981 10976 10972 10968 10963 10958 10953 10948 10945
11006 11005 11005 11006 11006 11007 11007 11006 11005 11006 11006 11005 11004 11003 11002 11002 11001 11001 11000 11000 11000 10999 10998 10997 10995 10993 10991 10989 10987 10982 10978 10974 10971 10966 10961 10956 10953 10947
11000 11001 11001 11001 11001 11002 11002 11003 11002 11002 11001 11001 11001 11000 11000 10999 10999 10999 10998 10999 10998 10997 10996 10996 10995 10994 10991 10989 10988 10985 10980 10976 10971 10968 10964 10959 10956 10951
10994 10995 10997 10997 10998 10997 10997 10998 10999 10999 10997 10997 10997 10998 10997 10997 10997 10997 10996 10996 10996 10995 10994 10994 10993 10992 10990 10988 10987 10984 10980 10975 10972 10968 10964 10960 10955 10951
10988 10989 10990 10992 10993 10994 10993 10993 10994 10996 10993 10992 10992 10993 10994 10994 10994 10995 10995 10995 10994 10993 10991 10991 10990 10988 10986 10985 10984 10981 10978 10974 10971 10967 10964 10959 10954 10950
10983 10985 10986 10987 10988 10988 10989 10988 10989 10990 10989 10988 10989 10989 10989 10990 10991 10991 10991 10991 10991 10989 10988 10987 10987 10983 10982 10980 10980 10977 10974 10972 10969 10965 10961 10958 10954 10949
10974 10978 10981 10983 10984 10984 10982 10982 10984 10984 10985 10986 10985 10984 10984 10984 10984 10985 10986 10986 10985 10983 10983 10981 10980 10979 10977 10973 10972 10971 10970 10968 10965 10962 10959 10955 10951 10946
10965 10969 10973 10976 10977 10977 10976 10978 10979 10979 10980 10981 10982 10981 10980 10979 10978 10979 10978 10979 10979 10979 10977 10975 10972 10971 10970 10968 10966 10965 10962 10962 10960 10957 10954 10950 10946 10942
10958 10963 10967 10968 10968 10967 10969 10974 10975 10974 10974 10974 10976 10976 10975 10974 10974 10974 10973 10973 10972 10971 10971 10968 10965 10964 10961 10959 10958 10957 10956 10953 10952 10951 10949 10945 10940 10937
10951 10954 10955 10956 10957 10959 10962 10965 10967 10968 10968 10967 10969 10969 10969 10969 10968 10967 10966 10966 10965 10964 10963 10962 10958 10957 10955 10953 10951 10950 10948 10946 10945 10942 10940 10936 10933 10929
10942 10942 10944 10946 10948 10951 10954 10956 10958 10959 10960 10960 10960 10960 10961 10962 10961 10960 10958 10957 10957 10956 10956 10955 10952 10949 10949 10946 10945 10942 10941 10939 10936 10935 10932 10928 10925 10922
10930 10931 10933 10936 10938 10943 10946 10948 10949 10949 10950 10950 10950 10951 10951 10952 10952 10952 10952 10951 10949 10948 10947 10945 10944 10942 10941 10939 10937 10933 10932 10930 10928 10926 10923 10921 10915 10913
10916 10918 10921 10924 10927 10931 10935 10938 10939 10940 10940 10941 10941 10942 10942 10941 10941 10941 10942 10941 10940 10939 10938 10936 10933 10933 10933 10930 10928 10926 10923 10923 10919 10916 10914 10910 10907 10904
10902 10906 10908 10912 10915 10918 10921 10925 10927 10929 10930 10930 10931 10932 10932 10931 10931 10931 10931 10930 10930 10929 10927 10926 10924 10923 10921 10920 10917 10916 10911 10911 10909 10907 10905 10902 10898 10893
10887 10890 10894 10897 10901 10904 10908 10911 10914 10915 10917 10918 10918 10919 10921 10922 10921 10921 10920 10919 10917 10917 10915 10916 10914 10912 10911 10908 10904 10903 10899 10897 10896 10893 10889 10885 10881 10876
10869 10874 10879 10883 10887 10891 10894 10898 10900 10902 10904 10904 10905 10907 10908 10910 10910 10908 10907 10907 10905 10903 10903 10903 10899 10898 10896 10894 10890 10888 10886 10881 10877 10874 10871 10866 10864 10858